[[{"header":{"parameterUnit":"m.s-1","parameterCategory":1,"la1":30.2991,"la2":30.254,"lo1":-89.0895,"lo2":-89.0444,"dy":0.0017,"dx":0.0017,"nx":28,"ny":28,"refTime":"2024-05-25T09:00:00:Z","depth":0,"parameterNumber":2,"parameterNumberName":"U-component_of_WINDS"},"data":[0,0,0,0,0,0,0,0,0,0,0,0,0,0,0,0,0,0,0,0,0,0,0,0,0,0,0,0,0,0,0,0,0,0,0,0,0,0,0,0,0,0,0,0,0,0,0,0,0,0,0,0,0,0,0,0,0,0,-0.6996,-0.6995,0,-0.6961,-0.696,-0.696,-0.6919,-0.6918,-0.6918,-0.6917,-0.6882,-0.6882,-0.6881,0,0,0,0,0,0,0,0,0,0,0,0,0,-0.7029,-0.7028,-0.6996,-0.6995,-0.6995,-0.6961,-0.696,-0.696,-0.6919,-0.6918,-0.6917,-0.6917,-0.6882,-0.6882,-0.6881,0,0,0,0,0,0,0,0,0,0,0,0,0,-0.7006,-0.7028,-0.6996,-0.697,-0.6968,-0.6961,-0.696,-0.696,-0.6919,-0.6918,-0.6917,-0.6916,-0.6882,-0.6882,-0.6881,-0.6897,0,0,-0.688,-0.6879,0,0,0,0,0,0,0,0,-0.7007,-0.7005,-0.6975,-0.6972,-0.6969,-0.6943,-0.6959,-0.6939,-0.6919,-0.6938,-0.6917,-0.6916,-0.6903,-0.6901,-0.6896,-0.6895,-0.6894,-0.6879,-0.6879,-0.6879,-0.6879,0,0,0,0,0,0,0,-0.7009,-0.7006,-0.6982,-0.6974,-0.6971,-0.6961,-0.6957,-0.6955,-0.6926,-0.6936,-0.6933,-0.6929,-0.6901,-0.6897,-0.6895,-0.6893,-0.6879,-0.6879,-0.6879,-0.6878,-0.6903,-0.6903,0,0,0,0,0,0,-0.7014,-0.7008,-0.6983,-0.6981,-0.6986,-0.6961,-0.6956,-0.6952,-0.6926,-0.6921,-0.693,-0.6927,-0.6898,-0.6896,-0.6894,-0.6909,-0.6879,-0.6878,-0.6878,-0.6902,-0.6903,-0.6904,0,0,0,0,0,0,-0.7015,-0.7012,-0.6984,-0.6993,-0.6989,-0.6962,-0.6958,-0.6952,-0.6948,-0.6922,-0.6916,-0.6931,-0.6897,-0.6895,-0.6896,-0.6908,-0.6878,-0.6878,-0.69,-0.6902,-0.6903,-0.6941,0,0,0,0,0,0,-0.7016,-0.7013,-0.7018,-0.6994,-0.6989,-0.6987,-0.6958,-0.6952,-0.6947,-0.6943,-0.6921,-0.6916,-0.6896,-0.6897,-0.6896,-0.6906,-0.6877,-0.6899,-0.6901,-0.6903,-0.6939,-0.6944,-0.6948,0,0,0,0,0,-0.7018,-0.7031,-0.7019,-0.7016,-0.6995,-0.6988,-0.6985,-0.6962,-0.6948,-0.6953,-0.6936,-0.6917,-0.6907,-0.6898,-0.6896,-0.6906,-0.6898,-0.6901,-0.6903,-0.6937,-0.6943,-0.6948,0,0,0,0,0,0,-0.7057,-0.7027,-0.7013,-0.7019,-0.7006,-0.6981,-0.6987,-0.6969,-0.696,-0.6957,-0.6929,-0.6925,-0.693,-0.6918,-0.6908,-0.692,-0.69,-0.6902,-0.6927,-0.6932,-0.6937,-0.6938,-0.6877,0,0,0,0,0,-0.7067,-0.7063,-0.7037,-0.7045,-0.7039,-0.7014,-0.701,-0.6994,-0.698,-0.6974,-0.6957,-0.6945,-0.6938,-0.6935,-0.6928,-0.6938,-0.6932,-0.6944,-0.6949,-0.6953,-0.6954,-0.6958,-0.6963,-0.6911,-0.6911,-0.6911,0,0,-0.7086,-0.7069,-0.7069,-0.7053,-0.7041,-0.7038,-0.701,-0.7008,-0.7006,-0.6974,-0.6973,-0.6961,-0.6945,-0.6951,-0.6953,-0.6942,-0.6968,-0.6956,-0.6959,-0.6958,-0.6961,-0.6965,-0.697,-0.6912,-0.6912,-0.6912,0,0,-0.712,-0.7107,-0.7111,-0.71,-0.7083,-0.7066,-0.7067,-0.7045,-0.7035,-0.7035,-0.701,-0.7008,-0.6998,-0.6987,-0.6981,-0.7011,-0.6992,-0.701,-0.7033,-0.7037,-0.7041,-0.7045,-0.7054,-0.7058,-0.7012,-0.7012,-0.7012,0,-0.7146,-0.714,-0.7116,-0.7115,-0.7109,-0.708,-0.7084,-0.7075,-0.7056,-0.7052,-0.7041,-0.7028,-0.7015,-0.7017,-0.7025,-0.7021,-0.7021,-0.7011,-0.7043,-0.7046,-0.7049,-0.7057,-0.7061,-0.7014,-0.7014,-0.7014,-0.7013,0,-0.7173,-0.7169,-0.7175,-0.7157,-0.7151,-0.7154,-0.713,-0.7127,-0.7112,-0.7096,-0.7096,-0.708,-0.7069,-0.7069,-0.7054,-0.7069,-0.7063,-0.7048,-0.7026,-0.7056,-0.7064,-0.7067,-0.7017,-0.7016,-0.7016,-0.7015,0,0,-0.7229,-0.7198,-0.72,-0.7191,-0.717,-0.7167,-0.7168,-0.7157,-0.7155,-0.7144,-0.7143,-0.7136,-0.7122,-0.7114,-0.7098,-0.7102,-0.7125,-0.7086,-0.7085,-0.7092,-0.714,-0.715,-0.7155,-0.7114,-0.7115,-0.7115,-0.7141,0,-0.7257,-0.7256,-0.7235,-0.724,-0.7236,-0.7209,-0.721,-0.7197,-0.7183,-0.7178,-0.7164,-0.7158,-0.714,-0.7135,-0.7138,-0.7122,-0.7134,-0.712,-0.7113,-0.7113,-0.7115,-0.7159,-0.717,-0.7195,-0.7144,-0.7144,-0.7145,0,-0.729,-0.7279,-0.7284,-0.7262,-0.726,-0.7261,-0.7249,-0.7245,-0.723,-0.722,-0.7212,-0.7193,-0.7193,-0.7175,-0.7174,-0.7164,-0.716,-0.7152,-0.7153,-0.7149,-0.7129,-0.7155,-0.7202,-0.7206,-0.715,-0.7149,-0.7149,0,-0.7328,-0.7316,-0.7317,-0.731,-0.7285,-0.7287,-0.7276,-0.7261,-0.7255,-0.7246,-0.7242,-0.7232,-0.7227,-0.722,-0.72,-0.7188,-0.7201,-0.7181,-0.7191,-0.7192,-0.7194,-0.7193,-0.7239,-0.7194,-0.7194,-0.7194,-0.7194,0,-0.7361,-0.7365,-0.7333,-0.7334,-0.7337,-0.7313,-0.7317,-0.7304,-0.7291,-0.7288,-0.7265,-0.7264,-0.7238,-0.7233,-0.7218,-0.7218,-0.7217,-0.7208,-0.7203,-0.7209,-0.721,-0.7205,-0.7202,-0.7195,-0.7195,-0.7195,-0.7195,0,-0.7404,-0.7383,-0.7382,-0.7359,-0.7353,-0.7356,-0.7336,-0.7336,-0.7321,-0.7318,-0.7316,-0.7293,-0.7287,-0.7266,-0.7255,-0.7245,-0.725,-0.7242,-0.7254,-0.7251,-0.7262,-0.7261,-0.7305,-0.7309,-0.7263,-0.7264,-0.7264,0,-0.7425,-0.7427,-0.7404,-0.74,-0.7391,-0.7386,-0.738,-0.7357,-0.7352,-0.7336,-0.7337,-0.7329,-0.732,-0.7312,-0.7294,-0.7285,-0.7276,-0.7292,-0.7275,-0.728,-0.7275,-0.7274,-0.7274,-0.7296,-0.7296,-0.7297,-0.7297,0,-0.7465,-0.7455,-0.7447,-0.7436,-0.743,-0.742,-0.7409,-0.7408,-0.7382,-0.7378,-0.737,-0.7364,-0.7353,-0.7344,-0.7333,-0.7323,-0.7305,-0.7303,-0.7305,-0.7309,-0.7316,-0.7311,-0.7263,-0.7302,-0.7301,-0.7301,-0.7301,-0.73,-0.7496,-0.7497,-0.748,-0.7472,-0.7462,-0.7452,-0.745,-0.7435,-0.7428,-0.7416,-0.7404,-0.7398,-0.7383,-0.7366,-0.7357,-0.7353,-0.7343,-0.7346,-0.7347,-0.7347,-0.7349,-0.7318,-0.7351,-0.735,-0.735,-0.735,-0.735,0,-0.7534,-0.7522,-0.7515,-0.75,-0.7494,-0.7479,-0.7466,-0.7462,-0.7457,-0.7444,-0.7437,-0.7429,-0.7421,-0.7403,-0.7393,-0.7393,-0.7385,-0.7391,-0.739,-0.7388,-0.7359,-0.7357,-0.7398,-0.7398,-0.7398,-0.7398,-0.7398,-0.7398,-0.7552,-0.7551,-0.7539,-0.7533,-0.7521,-0.7514,-0.7508,-0.7499,-0.7489,-0.748,-0.7474,-0.7462,-0.7447,-0.7437,-0.7429,-0.7424,-0.7421,-0.7429,-0.7422,-0.7395,-0.739,-0.7386,-0.7384,-0.7429,-0.7429,-0.7451,-0.7451,-0.7451]},{"header":{"parameterUnit":"m.s-1","parameterCategory":1,"la1":30.2991,"la2":30.254,"lo1":-89.0895,"lo2":-89.0444,"dy":0.0017,"dx":0.0017,"nx":28,"ny":28,"refTime":"2024-05-25T09:00:00:Z","depth":0,"parameterNumber":3,"parameterNumberName":"V-component_of_WINDS"},"data":[0,0,0,0,0,0,0,0,0,0,0,0,0,0,0,0,0,0,0,0,0,0,0,0,0,0,0,0,0,0,0,0,0,0,0,0,0,0,0,0,0,0,0,0,0,0,0,0,0,0,0,0,0,0,0,0,0,0,5.6876,5.6876,0,5.6882,5.6882,5.6882,5.689,5.689,5.689,5.689,5.6891,5.6891,5.6891,0,0,0,0,0,0,0,0,0,0,0,0,0,5.6868,5.6868,5.6876,5.6876,5.6876,5.6882,5.6882,5.6882,5.689,5.689,5.689,5.689,5.6891,5.6891,5.6891,0,0,0,0,0,0,0,0,0,0,0,0,0,5.6872,5.6868,5.6876,5.6881,5.6881,5.6882,5.6882,5.6882,5.689,5.689,5.689,5.689,5.6891,5.6891,5.6891,5.6885,0,0,5.689,5.689,0,0,0,0,0,0,0,0,5.6872,5.6872,5.688,5.688,5.6881,5.6886,5.6879,5.6883,5.689,5.6886,5.689,5.6891,5.6889,5.6889,5.6889,5.6885,5.6885,5.689,5.689,5.689,5.689,0,0,0,0,0,0,0,5.6871,5.6872,5.6878,5.688,5.6881,5.6882,5.6882,5.688,5.6886,5.6887,5.6887,5.6888,5.6889,5.6889,5.6889,5.6885,5.689,5.689,5.689,5.689,5.6879,5.6879,0,0,0,0,0,0,5.6871,5.6872,5.6878,5.6878,5.6877,5.6882,5.6883,5.6884,5.6886,5.6887,5.6888,5.6889,5.6889,5.6889,5.6889,5.6884,5.689,5.689,5.689,5.6879,5.6879,5.6879,0,0,0,0,0,0,5.6871,5.6871,5.6877,5.6875,5.6876,5.6881,5.6883,5.6884,5.6884,5.6887,5.6888,5.6888,5.689,5.6889,5.6887,5.6884,5.689,5.6889,5.688,5.6879,5.6879,5.6873,0,0,0,0,0,0,5.6871,5.6871,5.687,5.6875,5.6876,5.6876,5.6883,5.6884,5.6884,5.6885,5.6887,5.6887,5.689,5.6887,5.6887,5.6884,5.6889,5.688,5.6879,5.6879,5.6874,5.6873,5.6872,0,0,0,0,0,5.687,5.6866,5.687,5.687,5.6875,5.6876,5.6876,5.6881,5.6884,5.6882,5.6885,5.6887,5.6885,5.6887,5.6886,5.6884,5.688,5.688,5.6879,5.6874,5.6873,5.6872,0,0,0,0,0,0,5.6857,5.6867,5.6871,5.6869,5.6872,5.6877,5.6875,5.6879,5.688,5.688,5.6884,5.6885,5.6882,5.6882,5.6885,5.688,5.6883,5.6882,5.6879,5.6878,5.6877,5.6877,5.6889,0,0,0,0,0,5.6855,5.6857,5.6864,5.6861,5.6863,5.6869,5.687,5.6873,5.6876,5.6877,5.6879,5.688,5.688,5.6879,5.6879,5.6874,5.6875,5.6872,5.6872,5.6871,5.687,5.6869,5.6869,5.6878,5.6878,5.6878,0,0,5.6848,5.6854,5.6854,5.6859,5.6862,5.6863,5.687,5.687,5.687,5.6876,5.6875,5.6876,5.6878,5.6875,5.6874,5.6875,5.6868,5.687,5.687,5.6869,5.6869,5.6868,5.6867,5.6877,5.6878,5.6878,0,0,5.6837,5.6842,5.6841,5.6845,5.685,5.6855,5.6855,5.686,5.6863,5.6862,5.6867,5.6867,5.6866,5.6868,5.6868,5.6862,5.6864,5.6862,5.6857,5.6856,5.6856,5.6855,5.6853,5.6852,5.6861,5.6861,5.6861,0,5.6828,5.6831,5.6839,5.684,5.6843,5.6851,5.685,5.6853,5.6857,5.6858,5.686,5.6862,5.6863,5.6861,5.686,5.686,5.686,5.6861,5.6855,5.6855,5.6854,5.6853,5.6852,5.6861,5.6861,5.6861,5.6861,0,5.682,5.6822,5.6821,5.6828,5.683,5.683,5.6838,5.6839,5.6843,5.6847,5.6847,5.685,5.6851,5.6851,5.6854,5.6851,5.6852,5.6855,5.6858,5.6853,5.6852,5.6851,5.686,5.686,5.686,5.6861,0,0,5.6798,5.6813,5.6812,5.6817,5.6825,5.6826,5.6827,5.6831,5.6832,5.6835,5.6836,5.6837,5.6841,5.6841,5.6845,5.6844,5.6841,5.6848,5.6848,5.6846,5.6838,5.6836,5.6835,5.6843,5.6843,5.6843,5.6838,0,5.6789,5.6793,5.6801,5.6802,5.6804,5.6814,5.6815,5.682,5.6824,5.6826,5.6831,5.6832,5.6836,5.6837,5.6837,5.6841,5.6839,5.6841,5.6843,5.6843,5.6842,5.6834,5.6831,5.6826,5.6837,5.6837,5.6837,0,5.6777,5.6784,5.6785,5.6796,5.6797,5.6798,5.6804,5.6806,5.6812,5.6815,5.6818,5.6823,5.6824,5.6829,5.683,5.6832,5.6833,5.6835,5.6835,5.6835,5.6839,5.6833,5.6824,5.6824,5.6836,5.6836,5.6836,0,5.6763,5.6771,5.6773,5.6777,5.6789,5.6789,5.6794,5.6801,5.6803,5.6808,5.681,5.6814,5.6815,5.6818,5.6824,5.6827,5.6825,5.683,5.6828,5.6828,5.6826,5.6826,5.6817,5.6827,5.6827,5.6827,5.6827,0,5.6751,5.6751,5.6767,5.6768,5.677,5.678,5.6781,5.6786,5.6793,5.6795,5.6803,5.6805,5.6813,5.6815,5.682,5.6821,5.6822,5.6824,5.6825,5.6823,5.6823,5.6823,5.6824,5.6827,5.6827,5.6827,5.6827,0,5.6733,5.6744,5.6748,5.676,5.6764,5.6764,5.6775,5.6776,5.6783,5.6786,5.6787,5.6796,5.68,5.6807,5.6812,5.6815,5.6815,5.6817,5.6814,5.6814,5.6812,5.6812,5.6803,5.6803,5.6813,5.6813,5.6813,0,5.6725,5.6726,5.674,5.6744,5.6749,5.6754,5.6758,5.6768,5.6772,5.6781,5.6781,5.6786,5.6791,5.6796,5.6803,5.6807,5.6809,5.6806,5.681,5.6808,5.681,5.6809,5.681,5.6804,5.6804,5.6804,5.6804,0,5.6708,5.6715,5.6721,5.673,5.6735,5.6742,5.6749,5.6751,5.6763,5.6767,5.6772,5.6776,5.6783,5.6788,5.6794,5.6798,5.6803,5.6804,5.6803,5.6801,5.6799,5.68,5.6811,5.6803,5.6803,5.6803,5.6803,5.6803,5.6695,5.6698,5.6709,5.6716,5.6724,5.6731,5.6734,5.6742,5.6748,5.6756,5.6762,5.6767,5.6775,5.6784,5.6788,5.6792,5.6794,5.6793,5.6793,5.6793,5.6792,5.6799,5.6793,5.6793,5.6793,5.6793,5.6793,0,5.668,5.6689,5.6696,5.6707,5.6713,5.6721,5.673,5.6734,5.6739,5.6747,5.6753,5.676,5.6765,5.6774,5.678,5.6781,5.6784,5.6783,5.6782,5.6783,5.679,5.6789,5.678,5.678,5.678,5.678,5.678,5.678,5.6673,5.6678,5.6686,5.6695,5.6703,5.671,5.6715,5.6722,5.6729,5.6737,5.6743,5.675,5.6758,5.6765,5.6771,5.6773,5.6775,5.6773,5.6776,5.6781,5.6782,5.6783,5.6783,5.6773,5.6773,5.6769,5.6769,5.6769]}]]